星链-4375 (STARLINK-4375 )

导读

STARLINK-4375是美国太空探索技术公司(SpaceX)于2022年7月22日08:00发射的星链卫星,隶属于星链(Starlink)项目,该项目旨在构建全球卫星互联网星座,为全球范围提供高速互联网接入服务,提升偏远地区、海洋等场景的网络覆盖能力,推动全球互联基础设施建设。

Basic Information
目录编号:
53192
目录名称:
STARLINK-4375
国际标识:
2022-084D
轨道中心:
EARTH
卫星名称:
星链-4375
卫星全名:
星链-4375 (STARLINK-4375 )
卫星状态:
在轨 (已飞行1426 天)
发射日期:
2022-07-22 UTC
国别 :
美国 (US)
星等 :
--
Orbit Information
数据来源 国际轨道数据 AOE轨道数据
星历时间 2026-06-17T10:09:16+0800
9小时前
查看轨道信息
2026-06-12T23:00:00+0800
4天前
查看轨道信息
半长轴 6927.606km 6927.579km
偏心率 0.0001386 0.0001226
轨道倾角 97.350° 97.375°
近地点辐角 108.788° 84.787°
升交点赤经 228.204° 223.948°
平近点角 251.350° 210.105°
近地点 548.508km 548.592km
远地点 550.43km 550.292km
周期 95.639分钟 95.638分钟
每日圈数 15.056638 15.056726
Detailed Information
固有亮度:
5
最大亮度:
2.5
卫星平台:
Starlink v1.5
覆盖范围:
全球
运营商:
太空探索技术公司
运营商所在国:
美国
制造商(研发单位):
太空探索技术公司
制造商所在国:
美国
使用方式:
暂无
Satellite Introduction
星链(Starlink)计划是由太空探索技术公司(SpaceX)提出的一个巨型低轨卫星互联网星座项目,计划在2019年至2024年间在太空搭建由约1.2万颗卫星组成的“星链”网络,其中1584颗将部署在地球上空550千米处的近地轨道,并从2020年开始工作。该卫星仍在工作。
2D Orbit Map
3D Orbit Map
Orbit Altitude Analysis Chart
Orbit Inclination Analysis Chart
Orbit Comprehensive Analysis Chart
View Comprehensive Chart